Location: Wawayanda State Park
(41.1833°N, 74.4333°W)
Time: 07:12:49
(UTC-05:00)

Daily predictions for brighter satellites

Satellite Brightness Start Highest point End
(mag) Time Altitude Azimuth Time Altitude Azimuth Time Altitude Azimuth
BREEZE-M R/B 3.2 16:58:20 10° NW 17:00:35 27° NNE 17:03:40 10° E
Cosmos 2082 Rocket 3.5 17:00:02 10° N 17:04:03 19° NE 17:08:02 10° E
Cosmos 332 Rocket 4.4 17:00:03 10° NNW 17:04:53 64° WSW 17:09:42 10° S
CSL-04 Rocket 3.6 17:01:08 10° SSE 17:06:22 69° ENE 17:11:41 10° N
ERBS 2.5 17:04:11 10° NW 17:07:30 51° NE 17:10:50 10° ESE
Cosmos 468 Rocket 3.9 17:03:44 10° NNW 17:08:56 77° ENE 17:14:04 10° SSE
Cosmos 1782 4.4 17:06:37 10° SE 17:09:11 17° E 17:11:46 10° NE
Meteor 2-10 Rocket 4.0 17:04:29 10° SSW 17:09:39 67° WNW 17:15:04 10° N
MSX 4.4 17:06:03 10° S 17:11:46 66° WSW 17:17:32 10° NNW
Cosmos 972 Rocket 3.8 17:10:33 10° NNW 17:15:30 80° ENE 17:20:25 10° SSE
ALOS 3.6 17:14:10 10° ESE 17:17:23 19° ENE 17:20:36 10° NNE
Cosmos 1340 3.2 17:13:40 10° SSW 17:17:24 63° WNW 17:21:10 10° N
GENESIS II 4.1 17:14:32 10° NNW 17:18:27 67° NE 17:22:19 10° SE
USA 161 4.2 17:25:54 10° WNW 17:26:15 10° WNW 17:26:36 10° W
SMAP 3.0 17:21:44 10° SSE 17:26:23 83° ENE 17:31:03 10° N
Cosmos 2233 Rocket 4.0 17:22:00 10° S 17:28:13 71° E 17:34:25 10° NNE
Cosmos 1763 Rocket 3.4 17:23:53 10° NNW 17:29:06 67° ENE 17:34:12 10° SSE
Cosmos 1908 Rocket 3.8 17:25:54 10° N 17:30:05 46° ENE 17:34:15 10° SSE
ERS-2 2.7 17:27:24 10° SE 17:30:47 35° ENE 17:34:10 10° N
SKYMED 2 4.3 17:26:57 10° NNE 17:30:52 32° E 17:34:46 10° SSE
Cosmos 1733 Rocket 3.5 17:28:00 10° NNW 17:32:25 67° W 17:36:49 10° S
Cosmos 1844 Rocket 3.8 17:28:59 10° SW 17:34:19 43° WNW 17:39:41 10° NNE
Cosmos 972 4.4 17:29:20 10° N 17:34:19 59° ENE 17:39:07 10° SSE
AQUARIUS 4.3 17:30:15 10° S 17:34:44 82° WSW 17:39:16 10° NNW
COSMOS 2406 4.4 17:33:02 10° NW 17:38:31 48° WSW 17:43:57 10° S
Cosmos 1814 Rocket 4.1 17:35:30 10° NNW 17:40:53 86° WSW 17:46:15 10° SSE
Sich 1 Rocket 3.7 17:37:46 10° N 17:42:06 52° E 17:46:26 10° SSE
Cosmos 1862 Rocket 4.3 17:38:33 10° SSW 17:42:53 57° W 17:47:18 10° N
Meteor 1-14 Rocket 4.2 17:38:04 10° N 17:43:47 83° E 17:49:21 10° S
CZ-4C R/B 3.8 17:40:53 10° NNW 17:46:42 27° NE 17:50:24 19° ENE
SL-27 R/B 2.5 17:44:54 10° N 17:48:08 45° ENE 17:51:21 10° SE
Cosmos 1503 Rocket 4.4 17:43:36 10° S 17:48:30 40° ESE 17:52:26 15° NE
IRS-1A Rocket 4.3 17:44:11 10° SSE 17:50:01 90° WNW 17:55:47 10° NNW
Ariane Rocket 4.1 17:49:15 10° S 17:54:09 48° W 17:59:04 10° NNW
FENGYUN 3A 3.9 17:49:26 10° SE 17:54:32 44° ENE 17:59:39 10° N
USA 234 3.3 17:52:30 18° ENE 17:57:28 62° SE 18:03:55 10° SSW
Cosmos 540 Rocket 3.6 17:53:36 10° N 17:58:37 47° ENE 18:03:34 10° SE
COSMOS 2455 3.7 17:53:34 10° SW 17:59:22 49° NW 18:05:12 10° NNE
Okean 1-7 3.0 17:57:40 10° S 18:01:57 57° E 18:06:15 10° NNE
Meteor 1-11 Rocket 4.4 17:57:15 10° N 18:02:31 33° ENE 18:07:39 10° SE
Cosmos 1833 Rocket 2.8 17:57:18 10° NNW 18:02:48 51° ENE 18:08:14 10° SE
Cosmos 2297 3.9 17:57:20 10° S 18:02:49 51° ESE 18:06:35 20° NE
Cosmos 841 Rocket 3.6 17:58:24 10° NNW 18:03:42 81° WSW 18:08:57 10° SSE
Cosmos 1633 2.4 18:01:06 10° N 18:04:46 72° E 18:08:26 10° SSE
MTI 4.0 18:02:52 11° N 18:05:52 68° WNW 18:09:03 10° SSW
CZ-4 R/B 2.7 18:03:39 10° S 18:07:19 40° W 18:10:59 10° NNW
Cosmos 2278 Rocket 2.7 18:03:04 10° SW 18:08:41 61° WNW 18:14:19 10° NNE
Lacrosse 5 4.0 18:06:27 10° NW 18:09:19 15° NNW 18:11:48 11° NNE
Cosmos 1486 Rocket 4.3 18:04:49 10° SSW 18:09:59 66° WNW 18:15:14 10° NNE
Cosmos 44 Rocket 3.9 18:08:22 10° NNW 18:12:50 35° NE 18:13:12 35° ENE
Cosmos 1782 Rocket 3.4 18:10:09 10° N 18:14:31 84° E 18:18:53 10° S
MOS 1 4.3 18:09:00 10° SSE 18:14:43 86° WSW 18:20:27 10° NNW
COSMO-SKYMED 1 2.7 18:14:42 10° N 18:19:03 73° WNW 18:23:21 10° SSW
YAOGAN 1 3.6 18:15:41 10° S 18:19:51 47° W 18:24:02 10° NNW
Cosmos 1072 Rocket 4.4 18:16:18 10° S 18:22:31 88° E 18:28:52 10° N
SPOT 3 Rocket 3.5 18:19:07 10° SSE 18:24:20 85° WSW 18:29:35 10° NNW
Cosmos 292 Rocket 3.8 18:21:40 10° N 18:26:19 51° ENE 18:26:25 51° ENE
Cosmos 1354 Rocket 3.9 18:21:05 10° SSW 18:26:22 89° ESE 18:29:47 23° NNE
Nadezhda 4 Rocket 4.1 18:21:36 10° N 18:27:29 48° ENE 18:33:21 10° SSE
Cosmos 1441 Rocket 4.2 18:24:06 10° S 18:26:30 33° SSE 18:26:30 33° SSE
BREEZE-M DEB (TANK) 2.8 18:26:07 10° WSW 18:27:47 49° WNW 18:27:47 49° WNW
Cosmos 1606 3.6 18:25:02 10° SSW 18:28:41 48° W 18:32:00 12° N
Cosmos 2034 Rocket 3.9 18:22:45 10° S 18:29:03 68° E 18:35:22 10° NNE
Cosmos 2221 Rocket 3.8 18:28:20 10° SSW 18:32:43 71° W 18:36:18 15° N
EO 1 Del DPAF 4.3 18:30:33 13° N 18:33:42 45° WNW 18:37:20 10° SW
NOAA 12 4.3 18:34:08 10° S 18:39:26 73° WSW 18:44:46 10° NNW
Meteor 2-6 Rocket 4.3 18:35:25 10° SSW 18:40:49 72° W 18:46:24 10° N
CENTAUR R/B 4.4 18:37:45 10° W 18:42:48 24° NNW 18:48:01 11° NNE
Cosmos 1782 4.5 18:41:34 10° SW 18:45:14 33° WNW 18:48:55 10° N
Cosmos 44 3.3 18:41:05 10° NNW 18:45:16 65° NNE 18:45:16 65° NNE
Cosmos 2082 Rocket 2.4 18:43:02 10° NNW 18:48:43 71° WSW 18:54:19 10° SSE
Meteor 2-20 4.3 18:46:05 10° N 18:52:13 88° W 18:58:16 10° S
Okean 2 Rocket 3.7 18:49:06 10° NNW 18:53:33 57° W 18:57:58 10° S
ALOS 3.2 18:49:58 10° S 18:54:27 46° W 18:58:58 10° NNW
Thor Agena Rocket 3.7 18:59:06 60° S 18:59:06 60° S 19:03:18 10° SSW
FengYun 1-2 T 4.1 18:55:40 31° SSE 18:58:26 88° ENE 19:04:02 10° NNW
Cosmos 405 Rocket 4.0 18:56:10 10° SSW 18:58:57 37° WSW 18:58:57 37° WSW
Meteor 1-27 Rocket 4.0 19:01:46 10° SSW 19:07:38 69° WNW 19:11:10 25° N
CZ-4C R/B 2.9 19:28:49 10° NW 19:35:39 81° NW 19:35:39 81° NW
USA 234 3.9 19:39:51 44° NNW 19:40:19 45° NNW 19:46:27 10° W
